sat.trackr.live / text

‹ back to catalog

STARLINK-32783

NORAD 62606 · 2025-008V

PAYLOAD ACTIVE UNKNOWN

§ Identity

Operator
Country
US
Launch date
2025-01-13
Launch site
AFETR
Launch vehicle
Mass (kg)
RCS (m²)

Purposes: comms

External: N2YO · Heavens-Above · Gunter

§ Orbital elements

Epoch: 2026-05-25T04:24:11.838240Z

Period
94.27 min
Inclination
42.9974°
Eccentricity
0.0001126
Mean motion
15.27588827 rev/d
Perigee alt
482.3 km
Apogee alt
483.8 km
Semi-major
6,861.2 km
B*
4.9679e-4
RAAN
205.8778°
Arg perigee
289.2504°
Mean anomaly
70.8226°
Rev number
7,726

§ Raw data

STARLINK-327831 62606U 25008V   26145.18347035  .00013437  00000+0  49679-3 0  99992 62606  42.9974 205.8778 0001126 289.2504  70.8226 15.27588827 77264

JSON: /api/v1/satellites/62606 · /tle

For live sub-satellite position, see the globe view (requires WebGL).

§ Visibility from observer

Set your observer location to see the next 7 days of passes ≥ 10°. The values pass through the URL so the page stays shareable.

No JS? Fill the form by hand. The geolocation button needs JavaScript.